Regional Weather Roundup
Issued by NWS Kansas City/Pleasant Hill, MO

Home | Current Version | Previous Version | Graphics & Text | Print | Product List | Glossary Off
Versions: 1 2 3 4 5 6 7 8 9 10 11 12 13 14 15 16 17 18 19 20 21 22 23 24 25 26 27 28 29 30 31 32 33 34 35 36 37 38 39 40 41 42 43 44 45 46 47

000
ASUS43 KEAX 071010
RWREAX

WEATHER ROUNDUP FOR EASTERN KANSAS AND NORTHWEST MISSOURI
NATIONAL WEATHER SERVICE KANSAS CITY/PLEASANT HILL MO
500 AM CDT TUE JUL 07 2015

KSZ040-057-103>105-MOZ028-029-037-043-071100-
...KANSAS CITY METROPOLITAN AREA...

CITY           SKY/WX    TMP DP  RH WIND       PRES   REMARKS
K.C. INTL      RAIN      61  60  97 NE7       30.01S FOG
K.C. DOWNTOWN  LGT RAIN  62  61  96 NE10      30.00S FOG
LEES SUMMIT    CLOUDY    61  58  90 NE15      29.99R FOG
OLATHE - IXD   CLOUDY    61  59  93 N17G23    30.00R FOG
OLATHE - OJC   LGT RAIN  60  58  92 NE20G30   29.98S FOG
LAWRENCE       LGT RAIN  62  59  90 NE13G20   30.00F FOG

$$

MOZ001>008-011>017-020>025-030>033-038>040-044>046-053-054-071100-
...NORTHERN AND CENTRAL MISSOURI...

CITY           SKY/WX    TMP DP  RH WIND       PRES   REMARKS
ST. JOSEPH     CLOUDY    66  62  87 MISG      30.02S FOG
MOSBY          LGT RAIN  61  61 100 N5        30.01R
WARRENSBURG    CLOUDY    63  61  94 N15       29.97R FOG
WHITEMAN AFB   CLOUDY    65  63  93 N14G22    29.95R FOG
CLINTON        CLOUDY    73  73 100 N3        29.93S
SEDALIA        CLOUDY    68  66  93 N14G22    29.95R FOG
WARSAW         NOT AVBL
CHILLICOTHE      N/A     64  62  93 CALM      30.01F
KIRKSVILLE     LGT RAIN  63  57  81 N12       29.98R

$$

MOZ041-047>049-056>058-063>065-088>090-097-071100-
...EASTERN AND SOUTHERN MISSOURI...

CITY           SKY/WX    TMP DP  RH WIND       PRES   REMARKS
ST. LOUIS INTL LGT RAIN  78  69  73 W8        29.89S
SPIRIT OF STL  LGT RAIN  73  72  96 SW5       29.88S
COLUMBIA       CLOUDY    71  70  96 NW6       29.91F
ROLLA          CLOUDY    70  69  97 SW9       29.93F
OSAGE BEACH    CLOUDY    72  68  88 S5        29.94R
SPRINGFIELD    LGT RAIN  74  71  91 SW5       29.94S
BRANSON        CLOUDY    75  70  83 S5        29.96S
JOPLIN         CLOUDY    73  71  93 CALM      29.94S FOG
WEST PLAINS    CLOUDY    76  71  85 SW6       29.97F

$$

IAZ060-094-KSZ022-034>040-054-083-096-NEZ052-066-093-071100-
...KANSAS...SOUTHEAST NEBRASKA AND IOWA...

CITY           SKY/WX    TMP DP  RH WIND       PRES   REMARKS
TOPEKA         RAIN      63  63 100 N6        30.01F VSB 1
MANHATTAN      CLOUDY    67  62  84 NE14G21   30.03S HAZE
EMPORIA        CLOUDY    62  60  93 NE13G22   30.01R FOG
CHANUTE        LGT RAIN  71  70  96 NE16G22   29.94R FOG
WICHITA        HVY RAIN  65  62  90 N18G24    29.99F FOG
OMAHA          CLEAR     56  52  86 N7        30.10R
LINCOLN        PTCLDY    56  52  86 N9        30.12R
FALLS CITY     PTCLDY    62  56  80 N9        30.05R
LAMONI         PTCLDY    61  56  83 N14       30.03R
DES MOINES     CLEAR     60  52  74 N12       30.03R

$$



USA.gov is the U.S. government's official web portal to all federal, state and local government web resources and services.